Time,TemperatureF,DewpointF,PressureIn,WindDirection,WindDirectionDegrees,WindSpeedMPH,WindSpeedGustMPH,Humidity,HourlyPrecipIn,Conditions,Clouds,dailyrainin,SoftwareType,DateUTC
2013-10-13 00:01:00,54.4,49.0,30.33,South,171,5.0,5.0,82,0.00,,,0.00,Wunderground v.1.15,2013-10-13 04:01:00,
2013-10-13 00:02:00,54.4,49.0,30.33,South,172,5.0,5.0,82,0.00,,,0.00,Wunderground v.1.15,2013-10-13 04:02:00,
2013-10-13 00:03:00,54.4,49.0,30.33,South,173,4.0,5.0,82,0.00,,,0.00,Wunderground v.1.15,2013-10-13 04:03:00,
2013-10-13 00:04:00,54.4,49.0,30.33,South,173,6.0,6.0,82,0.00,,,0.00,Wunderground v.1.15,2013-10-13 04:04:00,
2013-10-13 00:05:00,54.2,48.8,30.33,South,173,2.0,6.0,82,0.00,,,0.00,Wunderground v.1.15,2013-10-13 04:05:00,
2013-10-13 00:10:00,54.2,48.8,30.33,South,173,5.0,5.0,82,0.00,,,0.00,Wunderground v.1.15,2013-10-13 04:10:00,
2013-10-13 00:16:00,54.2,48.8,30.34,South,171,3.0,9.0,82,0.00,,,0.00,Wunderground v.1.15,2013-10-13 04:16:00,
2013-10-13 00:21:00,54.1,48.7,30.34,South,171,3.0,4.0,82,0.00,,,0.00,Wunderground v.1.15,2013-10-13 04:21:00,
2013-10-13 00:26:00,54.1,48.7,30.34,South,173,0.0,5.0,82,0.00,,,0.00,Wunderground v.1.15,2013-10-13 04:26:00,
2013-10-13 00:32:00,53.8,48.4,30.34,South,173,4.0,5.0,82,0.00,,,0.00,Wunderground v.1.15,2013-10-13 04:32:00,
2013-10-13 00:38:00,53.8,48.8,30.34,South,175,4.0,5.0,83,0.00,,,0.00,Wunderground v.1.15,2013-10-13 04:38:00,
2013-10-13 00:44:00,53.8,48.8,30.34,South,173,2.0,7.0,83,0.00,,,0.00,Wunderground v.1.15,2013-10-13 04:44:00,
2013-10-13 00:49:00,53.6,48.6,30.34,South,175,7.0,7.0,83,0.00,,,0.00,Wunderground v.1.15,2013-10-13 04:49:00,
2013-10-13 00:55:00,53.6,48.6,30.34,South,177,4.0,6.0,83,0.00,,,0.00,Wunderground v.1.15,2013-10-13 04:55:00,
2013-10-13 01:01:00,53.5,48.5,30.34,South,175,4.0,4.0,83,0.00,,,0.00,Wunderground v.1.15,2013-10-13 05:01:00,
2013-10-13 01:07:00,53.6,48.6,30.34,South,173,4.0,8.0,83,0.00,,,0.00,Wunderground v.1.15,2013-10-13 05:07:00,
2013-10-13 01:13:00,53.6,48.6,30.34,South,173,4.0,5.0,83,0.00,,,0.00,Wunderground v.1.15,2013-10-13 05:13:00,
2013-10-13 01:19:00,53.5,48.5,30.34,South,179,3.0,10.0,83,0.00,,,0.00,Wunderground v.1.15,2013-10-13 05:19:00,
2013-10-13 01:24:00,53.5,48.5,30.34,SSE,168,2.0,7.0,83,0.00,,,0.00,Wunderground v.1.15,2013-10-13 05:24:00,
2013-10-13 01:30:00,53.5,48.5,30.34,South,183,6.0,6.0,83,0.00,,,0.00,Wunderground v.1.15,2013-10-13 05:30:00,
2013-10-13 01:36:00,53.5,48.5,30.34,SSE,164,5.0,6.0,83,0.00,,,0.00,Wunderground v.1.15,2013-10-13 05:36:00,
2013-10-13 01:42:00,53.3,48.3,30.34,SSE,168,6.0,6.0,83,0.00,,,0.00,Wunderground v.1.15,2013-10-13 05:42:00,
2013-10-13 01:47:00,53.3,48.3,30.34,SSE,164,5.0,6.0,83,0.00,,,0.00,Wunderground v.1.15,2013-10-13 05:47:00,
2013-10-13 01:53:00,53.3,48.3,30.34,South,169,5.0,9.0,83,0.00,,,0.00,Wunderground v.1.15,2013-10-13 05:53:00,
2013-10-13 01:59:00,53.2,48.2,30.34,South,169,7.0,9.0,83,0.00,,,0.00,Wunderground v.1.15,2013-10-13 05:59:00,
2013-10-13 02:04:00,53.2,48.2,30.34,South,170,4.0,12.0,83,0.00,,,0.00,Wunderground v.1.15,2013-10-13 06:04:00,
2013-10-13 02:09:00,53.1,48.1,30.34,South,180,3.0,12.0,83,0.00,,,0.00,Wunderground v.1.15,2013-10-13 06:09:00,
2013-10-13 02:14:00,52.9,47.9,30.34,South,171,7.0,8.0,83,0.00,,,0.00,Wunderground v.1.15,2013-10-13 06:14:00,
2013-10-13 02:19:00,52.8,48.1,30.34,South,170,8.0,9.0,84,0.00,,,0.00,Wunderground v.1.15,2013-10-13 06:19:00,
2013-10-13 02:24:00,52.6,47.9,30.34,South,171,5.0,7.0,84,0.00,,,0.00,Wunderground v.1.15,2013-10-13 06:24:00,
2013-10-13 02:29:00,52.6,47.9,30.34,South,169,2.0,9.0,84,0.00,,,0.00,Wunderground v.1.15,2013-10-13 06:29:00,
2013-10-13 02:34:00,52.6,47.9,30.34,SSE,161,9.0,9.0,84,0.00,,,0.00,Wunderground v.1.15,2013-10-13 06:34:00,
2013-10-13 02:39:00,52.9,47.9,30.34,South,178,4.0,11.0,83,0.00,,,0.00,Wunderground v.1.15,2013-10-13 06:39:00,
2013-10-13 02:44:00,52.9,47.9,30.34,SSE,158,5.0,12.0,83,0.00,,,0.00,Wunderground v.1.15,2013-10-13 06:44:00,
2013-10-13 02:49:00,52.9,47.6,30.34,SSE,153,4.0,12.0,82,0.00,,,0.00,Wunderground v.1.15,2013-10-13 06:49:00,
2013-10-13 02:54:00,52.3,47.3,30.34,SSE,153,4.0,6.0,83,0.00,,,0.00,Wunderground v.1.15,2013-10-13 06:54:00,
2013-10-13 02:59:00,51.9,47.2,30.34,SSE,147,2.0,9.0,84,0.00,,,0.00,Wunderground v.1.15,2013-10-13 06:59:00,
2013-10-13 03:04:00,51.6,47.2,30.34,SSE,147,4.0,6.0,85,0.00,,,0.00,Wunderground v.1.15,2013-10-13 07:04:00,
2013-10-13 03:09:00,51.7,47.3,30.34,SSE,148,2.0,7.0,85,0.00,,,0.00,Wunderground v.1.15,2013-10-13 07:09:00,
2013-10-13 03:14:00,52.2,47.5,30.34,SSE,149,2.0,7.0,84,0.00,,,0.00,Wunderground v.1.15,2013-10-13 07:14:00,
2013-10-13 03:20:00,52.3,47.6,30.34,SSE,148,3.0,9.0,84,0.00,,,0.00,Wunderground v.1.15,2013-10-13 07:20:00,
2013-10-13 03:25:00,52.6,47.6,30.34,SSE,148,5.0,6.0,83,0.00,,,0.00,Wunderground v.1.15,2013-10-13 07:25:00,
2013-10-13 03:30:00,52.9,47.9,30.34,SSE,147,4.0,4.0,83,0.00,,,0.00,Wunderground v.1.15,2013-10-13 07:30:00,
2013-10-13 03:35:00,53.1,47.7,30.34,SSE,148,11.0,11.0,82,0.00,,,0.00,Wunderground v.1.15,2013-10-13 07:35:00,
2013-10-13 03:40:00,53.6,47.9,30.34,SSE,163,5.0,6.0,81,0.00,,,0.00,Wunderground v.1.15,2013-10-13 07:40:00,
2013-10-13 03:45:00,53.9,47.9,30.35,SSE,150,4.0,10.0,80,0.00,,,0.00,Wunderground v.1.15,2013-10-13 07:45:00,
2013-10-13 03:50:00,53.8,47.8,30.35,SE,141,5.0,6.0,80,0.00,,,0.00,Wunderground v.1.15,2013-10-13 07:50:00,
2013-10-13 03:55:00,53.5,47.5,30.35,SE,145,5.0,12.0,80,0.00,,,0.00,Wunderground v.1.15,2013-10-13 07:55:00,
2013-10-13 04:00:00,53.1,47.4,30.35,SE,143,6.0,9.0,81,0.00,,,0.00,Wunderground v.1.15,2013-10-13 08:00:00,
2013-10-13 04:06:00,52.6,47.3,30.35,SE,136,0.0,11.0,82,0.00,,,0.00,Wunderground v.1.15,2013-10-13 08:06:00,
2013-10-13 04:11:00,52.6,47.6,30.35,SE,144,5.0,6.0,83,0.00,,,0.00,Wunderground v.1.15,2013-10-13 08:11:00,
2013-10-13 04:16:00,52.8,47.8,30.35,SE,138,6.0,11.0,83,0.00,,,0.00,Wunderground v.1.15,2013-10-13 08:16:00,
2013-10-13 04:21:00,52.8,47.8,30.35,SE,134,6.0,7.0,83,0.00,,,0.00,Wunderground v.1.15,2013-10-13 08:21:00,
2013-10-13 04:26:00,52.6,47.6,30.35,SE,144,5.0,9.0,83,0.00,,,0.00,Wunderground v.1.15,2013-10-13 08:26:00,
2013-10-13 04:31:00,52.6,47.9,30.35,SE,134,4.0,5.0,84,0.00,,,0.00,Wunderground v.1.15,2013-10-13 08:31:00,
2013-10-13 04:36:00,52.5,47.8,30.35,SE,136,4.0,8.0,84,0.00,,,0.00,Wunderground v.1.15,2013-10-13 08:36:00,
2013-10-13 04:41:00,52.5,47.8,30.35,SE,138,4.0,10.0,84,0.00,,,0.00,Wunderground v.1.15,2013-10-13 08:41:00,
2013-10-13 04:46:00,52.6,47.9,30.35,SE,138,4.0,11.0,84,0.00,,,0.00,Wunderground v.1.15,2013-10-13 08:46:00,
2013-10-13 04:51:00,52.8,48.1,30.35,SE,146,6.0,10.0,84,0.00,,,0.00,Wunderground v.1.15,2013-10-13 08:51:00,
2013-10-13 04:56:00,52.9,48.2,30.35,SE,142,3.0,10.0,84,0.00,,,0.00,Wunderground v.1.15,2013-10-13 08:56:00,
2013-10-13 05:01:00,52.9,48.2,30.35,SSE,150,3.0,9.0,84,0.00,,,0.00,Wunderground v.1.15,2013-10-13 09:01:00,
2013-10-13 05:06:00,53.1,48.1,30.35,SSE,150,3.0,9.0,83,0.00,,,0.00,Wunderground v.1.15,2013-10-13 09:06:00,
2013-10-13 05:11:00,53.1,48.1,30.35,SSE,149,1.0,5.0,83,0.00,,,0.00,Wunderground v.1.15,2013-10-13 09:11:00,
2013-10-13 05:17:00,53.2,48.2,30.36,SSE,149,2.0,5.0,83,0.00,,,0.00,Wunderground v.1.15,2013-10-13 09:17:00,
2013-10-13 05:22:00,53.2,48.2,30.36,SSE,149,4.0,6.0,83,0.00,,,0.00,Wunderground v.1.15,2013-10-13 09:22:00,
2013-10-13 05:27:00,53.5,48.1,30.36,SSE,150,4.0,7.0,82,0.00,,,0.00,Wunderground v.1.15,2013-10-13 09:27:00,
2013-10-13 05:31:00,53.6,48.2,30.36,SSE,157,4.0,9.0,82,0.00,,,0.00,Wunderground v.1.15,2013-10-13 09:31:00,
2013-10-13 05:36:00,53.8,48.1,30.36,SSE,156,0.0,9.0,81,0.00,,,0.00,Wunderground v.1.15,2013-10-13 09:36:00,
2013-10-13 05:42:00,53.8,48.1,30.36,SSE,165,4.0,9.0,81,0.00,,,0.00,Wunderground v.1.15,2013-10-13 09:42:00,
2013-10-13 05:47:00,53.8,48.1,30.36,SE,146,3.0,9.0,81,0.00,,,0.00,Wunderground v.1.15,2013-10-13 09:47:00,
2013-10-13 05:52:00,53.6,47.9,30.36,SSE,155,6.0,7.0,81,0.00,,,0.00,Wunderground v.1.15,2013-10-13 09:52:00,
2013-10-13 05:57:00,53.6,47.9,30.36,SE,144,7.0,10.0,81,0.00,,,0.00,Wunderground v.1.15,2013-10-13 09:57:00,
2013-10-13 06:02:00,53.6,47.9,30.36,SSE,152,8.0,10.0,81,0.00,,,0.00,Wunderground v.1.15,2013-10-13 10:02:00,
2013-10-13 06:07:00,53.6,47.9,30.36,SSE,150,5.0,11.0,81,0.00,,,0.00,Wunderground v.1.15,2013-10-13 10:07:00,
2013-10-13 06:12:00,53.6,47.9,30.36,SSE,155,6.0,9.0,81,0.00,,,0.00,Wunderground v.1.15,2013-10-13 10:12:00,
2013-10-13 06:17:00,53.8,48.1,30.36,SE,146,7.0,10.0,81,0.00,,,0.00,Wunderground v.1.15,2013-10-13 10:17:00,
2013-10-13 06:22:00,53.8,47.8,30.36,SE,140,8.0,12.0,80,0.00,,,0.00,Wunderground v.1.15,2013-10-13 10:22:00,
2013-10-13 06:27:00,53.8,47.8,30.36,SE,144,4.0,12.0,80,0.00,,,0.00,Wunderground v.1.15,2013-10-13 10:27:00,
2013-10-13 06:32:00,53.8,47.8,30.36,SE,136,5.0,9.0,80,0.00,,,0.00,Wunderground v.1.15,2013-10-13 10:32:00,
2013-10-13 06:37:00,53.8,48.1,30.36,SE,140,7.0,11.0,81,0.00,,,0.00,Wunderground v.1.15,2013-10-13 10:37:00,
2013-10-13 06:43:00,53.6,47.9,30.36,SE,142,3.0,12.0,81,0.00,,,0.00,Wunderground v.1.15,2013-10-13 10:43:00,
2013-10-13 06:48:00,53.6,47.9,30.36,SSE,156,7.0,12.0,81,0.00,,,0.00,Wunderground v.1.15,2013-10-13 10:48:00,
2013-10-13 06:53:00,53.6,47.9,30.36,SSE,156,4.0,12.0,81,0.00,,,0.00,Wunderground v.1.15,2013-10-13 10:53:00,
2013-10-13 06:58:00,53.6,47.9,30.36,SSE,153,5.0,12.0,81,0.00,,,0.00,Wunderground v.1.15,2013-10-13 10:58:00,
2013-10-13 07:03:00,53.8,48.1,30.36,SSE,149,3.0,10.0,81,0.00,,,0.00,Wunderground v.1.15,2013-10-13 11:03:00,
2013-10-13 07:08:00,53.8,48.1,30.36,SSE,152,5.0,10.0,81,0.00,,,0.00,Wunderground v.1.15,2013-10-13 11:08:00,
2013-10-13 07:13:00,53.9,47.9,30.36,SSE,153,4.0,8.0,80,0.00,,,0.00,Wunderground v.1.15,2013-10-13 11:13:00,
2013-10-13 07:18:00,53.9,47.9,30.36,SSE,155,7.0,10.0,80,0.00,,,0.00,Wunderground v.1.15,2013-10-13 11:18:00,
2013-10-13 07:23:00,54.1,47.7,30.36,SSE,160,3.0,7.0,79,0.00,,,0.00,Wunderground v.1.15,2013-10-13 11:23:00,
2013-10-13 07:28:00,54.1,47.7,30.36,SSE,161,4.0,9.0,79,0.00,,,0.00,Wunderground v.1.15,2013-10-13 11:28:00,
2013-10-13 07:33:00,54.1,47.7,30.37,SSE,161,3.0,7.0,79,0.00,,,0.00,Wunderground v.1.15,2013-10-13 11:33:00,
2013-10-13 07:38:00,54.1,47.7,30.37,SSE,161,0.0,7.0,79,0.00,,,0.00,Wunderground v.1.15,2013-10-13 11:38:00,
2013-10-13 07:43:00,54.1,47.7,30.37,SSE,159,3.0,10.0,79,0.00,,,0.00,Wunderground v.1.15,2013-10-13 11:43:00,
2013-10-13 07:48:00,54.1,47.7,30.37,SSE,161,6.0,10.0,79,0.00,,,0.00,Wunderground v.1.15,2013-10-13 11:48:00,
2013-10-13 07:53:00,54.2,47.8,30.37,SSE,159,5.0,6.0,79,0.00,,,0.00,Wunderground v.1.15,2013-10-13 11:53:00,
2013-10-13 07:58:00,54.2,47.8,30.37,SSE,156,5.0,7.0,79,0.00,,,0.00,Wunderground v.1.15,2013-10-13 11:58:00,
2013-10-13 08:03:00,54.4,48.0,30.37,SE,142,9.0,11.0,79,0.00,,,0.00,Wunderground v.1.15,2013-10-13 12:03:00,
2013-10-13 08:08:00,54.5,48.1,30.37,SSE,153,7.0,11.0,79,0.00,,,0.00,Wunderground v.1.15,2013-10-13 12:08:00,
2013-10-13 08:13:00,55.0,48.3,30.37,SSE,160,4.0,9.0,78,0.00,,,0.00,Wunderground v.1.15,2013-10-13 12:13:00,
2013-10-13 08:18:00,55.6,48.5,30.37,SSE,161,5.0,9.0,77,0.00,,,0.00,Wunderground v.1.15,2013-10-13 12:18:00,
2013-10-13 08:23:00,55.9,48.4,30.37,SSE,157,6.0,7.0,76,0.00,,,0.00,Wunderground v.1.15,2013-10-13 12:23:00,
2013-10-13 08:28:00,55.9,48.1,30.37,South,173,4.0,11.0,75,0.00,,,0.00,Wunderground v.1.15,2013-10-13 12:28:00,
2013-10-13 08:34:00,55.9,48.1,30.37,SSE,167,6.0,10.0,75,0.00,,,0.00,Wunderground v.1.15,2013-10-13 12:34:00,
2013-10-13 08:39:00,56.0,48.2,30.37,South,176,2.0,10.0,75,0.00,,,0.00,Wunderground v.1.15,2013-10-13 12:39:00,
2013-10-13 08:44:00,56.2,48.0,30.37,SSE,162,7.0,11.0,74,0.00,,,0.00,Wunderground v.1.15,2013-10-13 12:44:00,
2013-10-13 08:49:00,56.3,48.1,30.37,SSE,163,3.0,11.0,74,0.00,,,0.00,Wunderground v.1.15,2013-10-13 12:49:00,
2013-10-13 08:54:00,56.3,47.8,30.37,SSE,161,10.0,12.0,73,0.00,,,0.00,Wunderground v.1.15,2013-10-13 12:54:00,
2013-10-13 08:59:00,56.6,48.0,30.37,South,189,7.0,12.0,73,0.00,,,0.00,Wunderground v.1.15,2013-10-13 12:59:00,
2013-10-13 09:04:00,56.6,48.0,30.37,SSE,159,6.0,11.0,73,0.00,,,0.00,Wunderground v.1.15,2013-10-13 13:04:00,
2013-10-13 09:09:00,56.9,48.0,30.37,South,170,6.0,13.0,72,0.00,,,0.00,Wunderground v.1.15,2013-10-13 13:09:00,
2013-10-13 09:14:00,56.7,47.8,30.38,South,189,7.0,13.0,72,0.00,,,0.00,Wunderground v.1.15,2013-10-13 13:14:00,
2013-10-13 09:19:00,56.9,48.0,30.38,SSE,168,6.0,13.0,72,0.00,,,0.00,Wunderground v.1.15,2013-10-13 13:19:00,
2013-10-13 09:24:00,57.2,48.3,30.38,SSE,167,10.0,11.0,72,0.00,,,0.00,Wunderground v.1.15,2013-10-13 13:24:00,
2013-10-13 09:29:00,57.5,48.5,30.39,South,182,11.0,11.0,72,0.00,,,0.00,Wunderground v.1.15,2013-10-13 13:29:00,
2013-10-13 09:34:00,57.6,48.6,30.39,South,175,5.0,12.0,72,0.00,,,0.00,Wunderground v.1.15,2013-10-13 13:34:00,
2013-10-13 09:39:00,57.6,48.6,30.39,South,173,6.0,13.0,72,0.00,,,0.00,Wunderground v.1.15,2013-10-13 13:39:00,
2013-10-13 09:44:00,58.0,48.6,30.39,SSE,165,2.0,11.0,71,0.00,,,0.00,Wunderground v.1.15,2013-10-13 13:44:00,
2013-10-13 09:49:00,58.0,48.3,30.39,South,174,11.0,15.0,70,0.00,,,0.00,Wunderground v.1.15,2013-10-13 13:49:00,
2013-10-13 09:54:00,57.8,48.1,30.39,SSE,161,6.0,11.0,70,0.00,,,0.00,Wunderground v.1.15,2013-10-13 13:54:00,
2013-10-13 09:59:00,58.1,48.7,30.39,South,177,3.0,11.0,71,0.00,,,0.00,Wunderground v.1.15,2013-10-13 13:59:00,
2013-10-13 10:04:00,58.7,48.6,30.39,South,171,4.0,10.0,69,0.00,,,0.00,Wunderground v.1.15,2013-10-13 14:04:00,
2013-10-13 10:09:00,58.9,47.6,30.39,South,175,10.0,14.0,66,0.00,,,0.00,Wunderground v.1.15,2013-10-13 14:09:00,
2013-10-13 10:14:00,58.6,47.3,30.39,South,186,9.0,12.0,66,0.00,,,0.00,Wunderground v.1.15,2013-10-13 14:14:00,
2013-10-13 10:20:00,58.9,47.2,30.39,SSW,200,11.0,15.0,65,0.00,,,0.00,Wunderground v.1.15,2013-10-13 14:20:00,
2013-10-13 10:25:00,59.2,47.4,30.39,SE,144,5.0,15.0,65,0.00,,,0.00,Wunderground v.1.15,2013-10-13 14:25:00,
2013-10-13 10:30:00,59.2,47.4,30.39,South,171,6.0,9.0,65,0.00,,,0.00,Wunderground v.1.15,2013-10-13 14:30:00,
2013-10-13 10:35:00,59.2,47.4,30.39,SSE,157,7.0,14.0,65,0.00,,,0.00,Wunderground v.1.15,2013-10-13 14:35:00,
2013-10-13 10:40:00,59.3,47.5,30.39,SSW,205,11.0,13.0,65,0.00,,,0.00,Wunderground v.1.15,2013-10-13 14:40:00,
2013-10-13 10:45:00,59.3,47.9,30.39,SSE,163,3.0,17.0,66,0.00,,,0.00,Wunderground v.1.15,2013-10-13 14:45:00,
2013-10-13 10:50:00,59.8,48.8,30.39,SSE,167,3.0,8.0,67,0.00,,,0.00,Wunderground v.1.15,2013-10-13 14:50:00,
2013-10-13 10:55:00,59.8,49.6,30.39,SSE,166,0.0,11.0,69,0.00,,,0.00,Wunderground v.1.15,2013-10-13 14:55:00,
2013-10-13 11:00:00,59.8,48.8,30.39,South,169,6.0,10.0,67,0.00,,,0.00,Wunderground v.1.15,2013-10-13 15:00:00,
2013-10-13 11:05:00,60.1,49.1,30.39,South,181,9.0,12.0,67,0.00,,,0.00,Wunderground v.1.15,2013-10-13 15:05:00,
2013-10-13 11:10:00,60.2,48.8,30.39,South,169,8.0,9.0,66,0.00,,,0.00,Wunderground v.1.15,2013-10-13 15:10:00,
2013-10-13 11:15:00,60.2,48.4,30.39,South,187,4.0,11.0,65,0.00,,,0.00,Wunderground v.1.15,2013-10-13 15:15:00,
2013-10-13 11:20:00,60.4,49.0,30.39,South,175,10.0,10.0,66,0.00,,,0.00,Wunderground v.1.15,2013-10-13 15:20:00,
2013-10-13 11:25:00,60.4,48.2,30.39,South,175,7.0,15.0,64,0.00,,,0.00,Wunderground v.1.15,2013-10-13 15:25:00,
2013-10-13 11:30:00,60.4,48.6,30.38,South,179,10.0,14.0,65,0.00,,,0.00,Wunderground v.1.15,2013-10-13 15:30:00,
2013-10-13 11:35:00,60.5,48.7,30.38,South,175,12.0,14.0,65,0.00,,,0.00,Wunderground v.1.15,2013-10-13 15:35:00,
2013-10-13 11:40:00,60.5,49.1,30.38,South,176,7.0,8.0,66,0.00,,,0.00,Wunderground v.1.15,2013-10-13 15:40:00,
2013-10-13 11:45:00,61.0,49.1,30.38,South,180,5.0,11.0,65,0.00,,,0.00,Wunderground v.1.15,2013-10-13 15:45:00,
2013-10-13 11:50:00,61.2,49.3,30.38,South,191,3.0,6.0,65,0.00,,,0.00,Wunderground v.1.15,2013-10-13 15:50:00,
2013-10-13 11:55:00,61.5,48.8,30.38,South,189,5.0,10.0,63,0.00,,,0.00,Wunderground v.1.15,2013-10-13 15:55:00,
2013-10-13 12:00:00,61.6,49.3,30.38,SSE,151,6.0,12.0,64,0.00,,,0.00,Wunderground v.1.15,2013-10-13 16:00:00,
2013-10-13 12:05:00,61.6,49.3,30.38,SSE,167,6.0,12.0,64,0.00,,,0.00,Wunderground v.1.15,2013-10-13 16:05:00,
2013-10-13 12:10:00,61.8,49.5,30.38,SSE,161,11.0,11.0,64,0.00,,,0.00,Wunderground v.1.15,2013-10-13 16:10:00,
2013-10-13 12:15:00,61.8,49.1,30.37,South,179,4.0,14.0,63,0.00,,,0.00,Wunderground v.1.15,2013-10-13 16:15:00,
2013-10-13 12:20:00,61.8,49.5,30.37,SSE,163,7.0,10.0,64,0.00,,,0.00,Wunderground v.1.15,2013-10-13 16:20:00,
2013-10-13 12:25:00,62.4,49.6,30.37,SSE,160,10.0,13.0,63,0.00,,,0.00,Wunderground v.1.15,2013-10-13 16:25:00,
2013-10-13 12:30:00,62.0,49.3,30.36,South,182,3.0,8.0,63,0.00,,,0.00,Wunderground v.1.15,2013-10-13 16:30:00,
2013-10-13 12:35:00,62.4,49.6,30.36,SSE,168,8.0,12.0,63,0.00,,,0.00,Wunderground v.1.15,2013-10-13 16:35:00,
2013-10-13 12:40:00,62.6,49.0,30.36,South,189,10.0,15.0,61,0.00,,,0.00,Wunderground v.1.15,2013-10-13 16:40:00,
2013-10-13 12:45:00,62.7,49.9,30.34,South,179,7.0,15.0,63,0.00,,,0.00,Wunderground v.1.15,2013-10-13 16:45:00,
2013-10-13 12:50:00,63.1,49.9,30.34,SSE,157,5.0,10.0,62,0.00,,,0.00,Wunderground v.1.15,2013-10-13 16:50:00,
2013-10-13 12:55:00,63.2,49.1,30.34,SSE,159,9.0,16.0,60,0.00,,,0.00,Wunderground v.1.15,2013-10-13 16:55:00,
2013-10-13 13:00:00,63.9,50.2,30.34,SSE,163,10.0,10.0,61,0.00,,,0.00,Wunderground v.1.15,2013-10-13 17:00:00,
2013-10-13 13:05:00,64.7,50.0,30.34,SSE,165,9.0,15.0,59,0.00,,,0.00,Wunderground v.1.15,2013-10-13 17:05:00,
2013-10-13 13:11:00,64.5,49.8,30.34,SSW,205,4.0,7.0,59,0.00,,,0.00,Wunderground v.1.15,2013-10-13 17:11:00,
2013-10-13 13:16:00,64.7,50.0,30.33,SSE,165,1.0,10.0,59,0.00,,,0.00,Wunderground v.1.15,2013-10-13 17:16:00,
2013-10-13 13:21:00,64.5,48.9,30.33,South,169,7.0,11.0,57,0.00,,,0.00,Wunderground v.1.15,2013-10-13 17:21:00,
2013-10-13 13:26:00,65.0,49.9,30.33,South,173,2.0,12.0,58,0.00,,,0.00,Wunderground v.1.15,2013-10-13 17:26:00,
2013-10-13 13:31:00,64.8,48.7,30.33,SSE,161,11.0,11.0,56,0.00,,,0.00,Wunderground v.1.15,2013-10-13 17:31:00,
2013-10-13 13:36:00,65.0,49.9,30.33,South,177,10.0,15.0,58,0.00,,,0.00,Wunderground v.1.15,2013-10-13 17:36:00,
2013-10-13 13:41:00,65.5,49.4,30.33,South,173,7.0,9.0,56,0.00,,,0.00,Wunderground v.1.15,2013-10-13 17:41:00,
2013-10-13 13:46:00,65.2,49.1,30.31,SSE,157,8.0,14.0,56,0.00,,,0.00,Wunderground v.1.15,2013-10-13 17:46:00,
2013-10-13 13:51:00,65.6,49.0,30.31,SSE,168,10.0,13.0,55,0.00,,,0.00,Wunderground v.1.15,2013-10-13 17:51:00,
2013-10-13 13:56:00,65.3,48.7,30.31,South,169,7.0,16.0,55,0.00,,,0.00,Wunderground v.1.15,2013-10-13 17:56:00,
2013-10-13 14:01:00,65.3,48.7,30.31,South,177,7.0,14.0,55,0.00,,,0.00,Wunderground v.1.15,2013-10-13 18:01:00,
2013-10-13 14:06:00,66.1,49.9,30.31,South,183,2.0,14.0,56,0.00,,,0.00,Wunderground v.1.15,2013-10-13 18:06:00,
2013-10-13 14:11:00,66.1,49.0,30.31,South,174,5.0,9.0,54,0.00,,,0.00,Wunderground v.1.15,2013-10-13 18:11:00,
2013-10-13 14:16:00,66.3,48.7,30.30,South,171,5.0,15.0,53,0.00,,,0.00,Wunderground v.1.15,2013-10-13 18:16:00,
2013-10-13 14:21:00,66.1,48.5,30.30,South,182,4.0,15.0,53,0.00,,,0.00,Wunderground v.1.15,2013-10-13 18:21:00,
2013-10-13 14:26:00,66.3,49.2,30.30,SE,144,15.0,15.0,54,0.00,,,0.00,Wunderground v.1.15,2013-10-13 18:26:00,
2013-10-13 14:31:00,66.3,49.6,30.30,South,171,6.0,9.0,55,0.00,,,0.00,Wunderground v.1.15,2013-10-13 18:31:00,
2013-10-13 14:36:00,66.4,48.7,30.30,South,173,7.0,14.0,53,0.00,,,0.00,Wunderground v.1.15,2013-10-13 18:36:00,
2013-10-13 14:41:00,66.6,48.9,30.30,South,176,11.0,15.0,53,0.00,,,0.00,Wunderground v.1.15,2013-10-13 18:41:00,
2013-10-13 14:46:00,66.6,48.9,30.29,SSE,159,7.0,15.0,53,0.00,,,0.00,Wunderground v.1.15,2013-10-13 18:46:00,
2013-10-13 14:51:00,67.1,48.9,30.29,South,184,14.0,14.0,52,0.00,,,0.00,Wunderground v.1.15,2013-10-13 18:51:00,
2013-10-13 14:56:00,67.4,49.7,30.29,SSW,200,8.0,14.0,53,0.00,,,0.00,Wunderground v.1.15,2013-10-13 18:56:00,
2013-10-13 15:01:00,67.1,48.9,30.29,SSE,162,7.0,11.0,52,0.00,,,0.00,Wunderground v.1.15,2013-10-13 19:01:00,
2013-10-13 15:06:00,67.3,49.1,30.29,South,173,10.0,14.0,52,0.00,,,0.00,Wunderground v.1.15,2013-10-13 19:06:00,
2013-10-13 15:11:00,67.4,49.7,30.29,SSE,150,11.0,11.0,53,0.00,,,0.00,Wunderground v.1.15,2013-10-13 19:11:00,
2013-10-13 15:16:00,67.4,48.6,30.28,South,182,6.0,16.0,51,0.00,,,0.00,Wunderground v.1.15,2013-10-13 19:16:00,
2013-10-13 15:22:00,67.6,48.8,30.28,South,173,5.0,11.0,51,0.00,,,0.00,Wunderground v.1.15,2013-10-13 19:22:00,
2013-10-13 15:27:00,67.8,49.0,30.28,South,186,6.0,16.0,51,0.00,,,0.00,Wunderground v.1.15,2013-10-13 19:27:00,
2013-10-13 15:32:00,67.8,49.5,30.28,SSE,153,12.0,13.0,52,0.00,,,0.00,Wunderground v.1.15,2013-10-13 19:32:00,
2013-10-13 15:37:00,67.6,48.8,30.28,SSW,195,5.0,15.0,51,0.00,,,0.00,Wunderground v.1.15,2013-10-13 19:37:00,
2013-10-13 15:42:00,67.8,49.0,30.28,South,169,5.0,14.0,51,0.00,,,0.00,Wunderground v.1.15,2013-10-13 19:42:00,
2013-10-13 15:47:00,68.1,49.3,30.28,South,178,9.0,14.0,51,0.00,,,0.00,Wunderground v.1.15,2013-10-13 19:47:00,
2013-10-13 15:52:00,68.6,49.2,30.28,SSE,167,9.0,10.0,50,0.00,,,0.00,Wunderground v.1.15,2013-10-13 19:52:00,
2013-10-13 15:57:00,68.6,49.2,30.28,South,173,4.0,13.0,50,0.00,,,0.00,Wunderground v.1.15,2013-10-13 19:57:00,
2013-10-13 16:02:00,68.4,48.5,30.27,South,174,6.0,13.0,49,0.00,,,0.00,Wunderground v.1.15,2013-10-13 20:02:00,
2013-10-13 16:08:00,68.4,49.0,30.27,SSE,157,10.0,17.0,50,0.00,,,0.00,Wunderground v.1.15,2013-10-13 20:08:00,
2013-10-13 16:13:00,68.6,49.2,30.27,South,189,5.0,11.0,50,0.00,,,0.00,Wunderground v.1.15,2013-10-13 20:13:00,
2013-10-13 16:18:00,68.4,48.5,30.27,SSE,165,4.0,11.0,49,0.00,,,0.00,Wunderground v.1.15,2013-10-13 20:18:00,
2013-10-13 16:24:00,68.8,49.4,30.27,South,177,0.0,6.0,50,0.00,,,0.00,Wunderground v.1.15,2013-10-13 20:24:00,
2013-10-13 16:29:00,68.9,48.9,30.27,South,189,9.0,10.0,49,0.00,,,0.00,Wunderground v.1.15,2013-10-13 20:29:00,
2013-10-13 16:34:00,68.4,48.5,30.27,SSE,162,7.0,13.0,49,0.00,,,0.00,Wunderground v.1.15,2013-10-13 20:34:00,
2013-10-13 16:39:00,68.4,49.0,30.27,South,174,9.0,13.0,50,0.00,,,0.00,Wunderground v.1.15,2013-10-13 20:39:00,
2013-10-13 16:44:00,68.4,49.0,30.27,South,186,10.0,13.0,50,0.00,,,0.00,Wunderground v.1.15,2013-10-13 20:44:00,
2013-10-13 16:49:00,68.3,49.5,30.27,SSE,159,6.0,13.0,51,0.00,,,0.00,Wunderground v.1.15,2013-10-13 20:49:00,
2013-10-13 16:54:00,68.3,49.5,30.27,South,172,4.0,12.0,51,0.00,,,0.00,Wunderground v.1.15,2013-10-13 20:54:00,
2013-10-13 16:59:00,67.9,49.6,30.26,SSE,152,0.0,12.0,52,0.00,,,0.00,Wunderground v.1.15,2013-10-13 20:59:00,
2013-10-13 17:04:00,67.8,50.0,30.26,SSE,154,7.0,10.0,53,0.00,,,0.00,Wunderground v.1.15,2013-10-13 21:04:00,
2013-10-13 17:09:00,67.6,49.9,30.26,SSE,153,2.0,10.0,53,0.00,,,0.00,Wunderground v.1.15,2013-10-13 21:09:00,
2013-10-13 17:14:00,67.1,49.9,30.26,SSE,154,3.0,6.0,54,0.00,,,0.00,Wunderground v.1.15,2013-10-13 21:14:00,
2013-10-13 17:19:00,66.8,50.1,30.26,SSE,154,0.0,6.0,55,0.00,,,0.00,Wunderground v.1.15,2013-10-13 21:19:00,
2013-10-13 17:24:00,66.4,50.2,30.26,SSE,154,2.0,5.0,56,0.00,,,0.00,Wunderground v.1.15,2013-10-13 21:24:00,
2013-10-13 17:29:00,66.3,50.1,30.27,SSE,154,0.0,6.0,56,0.00,,,0.00,Wunderground v.1.15,2013-10-13 21:29:00,
2013-10-13 17:34:00,66.0,50.3,30.27,SSE,154,0.0,4.0,57,0.00,,,0.00,Wunderground v.1.15,2013-10-13 21:34:00,
2013-10-13 17:39:00,65.8,50.6,30.27,SSE,155,0.0,7.0,58,0.00,,,0.00,Wunderground v.1.15,2013-10-13 21:39:00,
2013-10-13 17:44:00,65.6,50.4,30.27,SSE,155,0.0,1.0,58,0.00,,,0.00,Wunderground v.1.15,2013-10-13 21:44:00,
2013-10-13 17:50:00,65.5,50.3,30.27,SSE,155,0.0,5.0,58,0.00,,,0.00,Wunderground v.1.15,2013-10-13 21:50:00,
2013-10-13 17:55:00,65.2,50.0,30.27,SSE,156,0.0,7.0,58,0.00,,,0.00,Wunderground v.1.15,2013-10-13 21:55:00,
2013-10-13 18:00:00,64.8,50.1,30.27,SSE,157,4.0,4.0,59,0.00,,,0.00,Wunderground v.1.15,2013-10-13 22:00:00,
2013-10-13 18:06:00,64.3,49.7,30.27,SSE,157,2.0,7.0,59,0.00,,,0.00,Wunderground v.1.15,2013-10-13 22:06:00,
2013-10-13 18:11:00,64.2,50.0,30.27,SSE,160,4.0,5.0,60,0.00,,,0.00,Wunderground v.1.15,2013-10-13 22:11:00,
2013-10-13 18:16:00,63.9,49.7,30.27,SSE,161,5.0,5.0,60,0.00,,,0.00,Wunderground v.1.15,2013-10-13 22:16:00,
2013-10-13 18:21:00,63.5,49.8,30.27,SSE,161,0.0,3.0,61,0.00,,,0.00,Wunderground v.1.15,2013-10-13 22:21:00,
2013-10-13 18:26:00,63.2,49.5,30.27,SSE,162,4.0,6.0,61,0.00,,,0.00,Wunderground v.1.15,2013-10-13 22:26:00,
2013-10-13 18:31:00,63.1,49.9,30.28,SSE,162,0.0,2.0,62,0.00,,,0.00,Wunderground v.1.15,2013-10-13 22:31:00,
2013-10-13 18:36:00,62.7,49.5,30.28,SSE,162,2.0,6.0,62,0.00,,,0.00,Wunderground v.1.15,2013-10-13 22:36:00,
2013-10-13 18:41:00,62.7,49.5,30.28,SSE,162,3.0,5.0,62,0.00,,,0.00,Wunderground v.1.15,2013-10-13 22:41:00,
2013-10-13 18:46:00,62.6,49.4,30.28,SSE,163,5.0,6.0,62,0.00,,,0.00,Wunderground v.1.15,2013-10-13 22:46:00,
2013-10-13 18:52:00,62.6,49.4,30.28,SSE,162,4.0,6.0,62,0.00,,,0.00,Wunderground v.1.15,2013-10-13 22:52:00,
2013-10-13 18:57:00,62.7,49.5,30.28,SSE,162,3.0,9.0,62,0.00,,,0.00,Wunderground v.1.15,2013-10-13 22:57:00,
2013-10-13 19:02:00,62.7,49.5,30.28,SSE,166,3.0,8.0,62,0.00,,,0.00,Wunderground v.1.15,2013-10-13 23:02:00,
2013-10-13 19:07:00,62.7,49.5,30.28,SSE,163,6.0,9.0,62,0.00,,,0.00,Wunderground v.1.15,2013-10-13 23:07:00,
2013-10-13 19:12:00,62.7,49.5,30.28,SSE,161,7.0,7.0,62,0.00,,,0.00,Wunderground v.1.15,2013-10-13 23:12:00,
2013-10-13 19:17:00,62.7,49.5,30.28,SSE,161,6.0,7.0,62,0.00,,,0.00,Wunderground v.1.15,2013-10-13 23:17:00,
2013-10-13 19:22:00,62.7,49.1,30.28,SSE,161,3.0,10.0,61,0.00,,,0.00,Wunderground v.1.15,2013-10-13 23:22:00,
2013-10-13 19:27:00,62.0,49.3,30.28,SSE,159,4.0,10.0,63,0.00,,,0.00,Wunderground v.1.15,2013-10-13 23:27:00,
2013-10-13 19:32:00,61.2,49.7,30.28,SE,136,6.0,9.0,66,0.00,,,0.00,Wunderground v.1.15,2013-10-13 23:32:00,
2013-10-13 19:37:00,60.4,49.4,30.28,SE,130,7.0,9.0,67,0.00,,,0.00,Wunderground v.1.15,2013-10-13 23:37:00,
2013-10-13 19:42:00,60.1,49.5,30.28,SE,133,5.0,7.0,68,0.00,,,0.00,Wunderground v.1.15,2013-10-13 23:42:00,
2013-10-13 19:47:00,59.9,49.3,30.28,SE,136,3.0,8.0,68,0.00,,,0.00,Wunderground v.1.15,2013-10-13 23:47:00,
2013-10-13 19:52:00,59.6,49.4,30.28,SE,135,7.0,10.0,69,0.00,,,0.00,Wunderground v.1.15,2013-10-13 23:52:00,
2013-10-13 19:57:00,59.5,49.3,30.28,SE,139,8.0,11.0,69,0.00,,,0.00,Wunderground v.1.15,2013-10-13 23:57:00,
2013-10-13 20:03:00,59.2,49.4,30.28,SE,142,4.0,7.0,70,0.00,,,0.00,Wunderground v.1.15,2013-10-14 00:03:00,
2013-10-13 20:08:00,59.2,49.4,30.28,SE,134,4.0,10.0,70,0.00,,,0.00,Wunderground v.1.15,2013-10-14 00:08:00,
2013-10-13 20:13:00,59.0,49.2,30.28,SE,136,3.0,9.0,70,0.00,,,0.00,Wunderground v.1.15,2013-10-14 00:13:00,
2013-10-13 20:18:00,59.2,49.0,30.29,SSE,151,6.0,11.0,69,0.00,,,0.00,Wunderground v.1.15,2013-10-14 00:18:00,
2013-10-13 20:23:00,58.9,48.7,30.29,SE,139,7.0,10.0,69,0.00,,,0.00,Wunderground v.1.15,2013-10-14 00:23:00,
2013-10-13 20:28:00,59.0,48.4,30.29,SE,138,3.0,11.0,68,0.00,,,0.00,Wunderground v.1.15,2013-10-14 00:28:00,
2013-10-13 20:33:00,58.9,48.4,30.29,SE,144,8.0,11.0,68,0.00,,,0.00,Wunderground v.1.15,2013-10-14 00:33:00,
2013-10-13 20:38:00,58.9,48.4,30.29,SSE,155,3.0,11.0,68,0.00,,,0.00,Wunderground v.1.15,2013-10-14 00:38:00,
2013-10-13 20:43:00,59.2,48.2,30.29,SSE,148,7.0,7.0,67,0.00,,,0.00,Wunderground v.1.15,2013-10-14 00:43:00,
2013-10-13 20:48:00,59.2,48.2,30.29,SSE,148,9.0,10.0,67,0.00,,,0.00,Wunderground v.1.15,2013-10-14 00:48:00,
2013-10-13 20:53:00,59.0,48.1,30.29,SSE,149,4.0,10.0,67,0.00,,,0.00,Wunderground v.1.15,2013-10-14 00:53:00,
2013-10-13 20:58:00,59.0,48.1,30.29,SE,145,5.0,10.0,67,0.00,,,0.00,Wunderground v.1.15,2013-10-14 00:58:00,
2013-10-13 21:03:00,58.9,48.0,30.29,SE,142,6.0,8.0,67,0.00,,,0.00,Wunderground v.1.15,2013-10-14 01:03:00,
2013-10-13 21:08:00,59.2,47.8,30.29,SE,145,12.0,14.0,66,0.00,,,0.00,Wunderground v.1.15,2013-10-14 01:08:00,
2013-10-13 21:13:00,59.2,47.8,30.29,SE,144,4.0,8.0,66,0.00,,,0.00,Wunderground v.1.15,2013-10-14 01:13:00,
2013-10-13 21:18:00,59.3,47.9,30.29,SE,146,5.0,12.0,66,0.00,,,0.00,Wunderground v.1.15,2013-10-14 01:18:00,
2013-10-13 21:23:00,59.5,48.1,30.29,SSE,149,6.0,10.0,66,0.00,,,0.00,Wunderground v.1.15,2013-10-14 01:23:00,
2013-10-13 21:28:00,59.3,47.9,30.30,SSE,160,3.0,12.0,66,0.00,,,0.00,Wunderground v.1.15,2013-10-14 01:28:00,
2013-10-13 21:33:00,59.2,47.8,30.30,SE,145,4.0,10.0,66,0.00,,,0.00,Wunderground v.1.15,2013-10-14 01:33:00,
2013-10-13 21:38:00,58.9,48.0,30.30,SSE,148,4.0,11.0,67,0.00,,,0.00,Wunderground v.1.15,2013-10-14 01:38:00,
2013-10-13 21:43:00,58.6,48.1,30.30,SE,142,5.0,10.0,68,0.00,,,0.00,Wunderground v.1.15,2013-10-14 01:43:00,
2013-10-13 21:48:00,58.3,47.8,30.30,ESE,123,6.0,12.0,68,0.00,,,0.00,Wunderground v.1.15,2013-10-14 01:48:00,
2013-10-13 21:53:00,58.1,48.0,30.30,SE,132,3.0,9.0,69,0.00,,,0.00,Wunderground v.1.15,2013-10-14 01:53:00,
2013-10-13 21:58:00,58.0,47.9,30.30,SSE,160,4.0,12.0,69,0.00,,,0.00,Wunderground v.1.15,2013-10-14 01:58:00,
2013-10-13 22:03:00,58.0,47.9,30.30,SSE,148,9.0,12.0,69,0.00,,,0.00,Wunderground v.1.15,2013-10-14 02:03:00,
2013-10-13 22:08:00,58.1,48.0,30.30,SSE,151,6.0,13.0,69,0.00,,,0.00,Wunderground v.1.15,2013-10-14 02:08:00,
2013-10-13 22:13:00,58.0,47.9,30.30,SE,136,9.0,14.0,69,0.00,,,0.00,Wunderground v.1.15,2013-10-14 02:13:00,
2013-10-13 22:18:00,58.0,47.9,30.30,SSE,167,5.0,14.0,69,0.00,,,0.00,Wunderground v.1.15,2013-10-14 02:18:00,
2013-10-13 22:23:00,57.8,47.7,30.30,SSE,155,4.0,7.0,69,0.00,,,0.00,Wunderground v.1.15,2013-10-14 02:23:00,
2013-10-13 22:28:00,57.6,47.5,30.30,SSE,153,5.0,9.0,69,0.00,,,0.00,Wunderground v.1.15,2013-10-14 02:28:00,
2013-10-13 22:33:00,57.5,47.8,30.30,SSE,159,3.0,7.0,70,0.00,,,0.00,Wunderground v.1.15,2013-10-14 02:33:00,
2013-10-13 22:38:00,57.5,47.8,30.30,SSE,153,12.0,12.0,70,0.00,,,0.00,Wunderground v.1.15,2013-10-14 02:38:00,
2013-10-13 22:44:00,57.3,47.6,30.30,SE,136,5.0,12.0,70,0.00,,,0.00,Wunderground v.1.15,2013-10-14 02:44:00,
2013-10-13 22:49:00,57.2,47.5,30.30,SE,136,5.0,12.0,70,0.00,,,0.00,Wunderground v.1.15,2013-10-14 02:49:00,
2013-10-13 22:54:00,57.0,47.7,30.30,SSE,156,5.0,10.0,71,0.00,,,0.00,Wunderground v.1.15,2013-10-14 02:54:00,
2013-10-13 22:59:00,56.7,47.4,30.30,SSE,148,8.0,10.0,71,0.00,,,0.00,Wunderground v.1.15,2013-10-14 02:59:00,
2013-10-13 23:04:00,56.6,47.7,30.30,SE,136,6.0,12.0,72,0.00,,,0.00,Wunderground v.1.15,2013-10-14 03:04:00,
2013-10-13 23:09:00,56.7,47.4,30.30,SE,146,10.0,14.0,71,0.00,,,0.00,Wunderground v.1.15,2013-10-14 03:09:00,
2013-10-13 23:14:00,56.6,47.7,30.30,SE,138,8.0,14.0,72,0.00,,,0.00,Wunderground v.1.15,2013-10-14 03:14:00,
2013-10-13 23:19:00,56.3,47.4,30.30,SE,142,9.0,14.0,72,0.00,,,0.00,Wunderground v.1.15,2013-10-14 03:19:00,
2013-10-13 23:24:00,56.3,47.8,30.30,SE,143,6.0,15.0,73,0.00,,,0.00,Wunderground v.1.15,2013-10-14 03:24:00,
2013-10-13 23:29:00,56.3,47.8,30.30,SSE,159,9.0,17.0,73,0.00,,,0.00,Wunderground v.1.15,2013-10-14 03:29:00,
2013-10-13 23:34:00,56.3,47.8,30.30,SSE,164,12.0,14.0,73,0.00,,,0.00,Wunderground v.1.15,2013-10-14 03:34:00,
2013-10-13 23:39:00,56.3,47.8,30.30,SSE,148,7.0,16.0,73,0.00,,,0.00,Wunderground v.1.15,2013-10-14 03:39:00,
2013-10-13 23:44:00,56.3,47.8,30.30,SSE,156,11.0,13.0,73,0.00,,,0.00,Wunderground v.1.15,2013-10-14 03:44:00,
2013-10-13 23:49:00,56.3,47.8,30.30,SSE,162,10.0,14.0,73,0.00,,,0.00,Wunderground v.1.15,2013-10-14 03:49:00,
2013-10-13 23:54:00,56.2,47.7,30.30,SSE,156,13.0,13.0,73,0.00,,,0.00,Wunderground v.1.15,2013-10-14 03:54:00,
2013-10-13 23:59:00,56.2,47.7,30.29,SE,138,9.0,13.0,73,0.00,,,0.00,Wunderground v.1.15,2013-10-14 03:59:00,